Theta_e
358 356 355 357 357 354 351 348 342 339 337 336 338 337 337 336 335 335 335 335 335 336 337 337 335 334 335 336 336 338 337 339 334 338 338 336 340 338 338 337 337 339 340
355 355 357 358 356 353 349 342 338 335 336 336 338 337 337 336 333 334 334 334 333 336 334 334 335 333 332 332 331 334 334 335 337 336 336 336 336 340 340 337 337 341 342
355 355 358 357 353 349 340 336 337 335 337 338 338 337 337 335 333 333 331 331 331 331 333 333 335 334 331 328 327 329 330 330 333 335 335 339 340 339 339 340 338 337 341
355 357 358 355 350 344 339 335 335 336 337 337 337 337 336 335 335 332 332 332 330 328 327 328 328 328 329 328 329 328 328 328 329 332 335 337 338 338 338 335 336 337 339
357 358 357 351 345 340 337 335 335 335 335 337 337 337 335 335 334 332 330 327 331 330 328 327 324 327 329 329 330 328 328 329 330 331 333 335 336 336 335 332 334 335 339
356 357 353 345 341 338 336 335 335 334 336 336 336 335 335 333 332 331 331 326 323 330 328 327 323 322 327 331 329 325 325 329 329 329 331 334 334 334 330 329 328 330 333
354 352 347 342 338 337 336 334 333 334 336 334 334 335 335 335 332 332 330 328 328 322 328 328 326 323 325 327 325 321 318 327 327 329 330 331 334 331 329 327 327 327 330
352 349 346 341 338 336 334 330 332 335 335 335 334 334 333 332 333 332 330 328 328 325 326 325 327 325 320 325 321 317 321 326 326 328 329 330 332 329 327 326 327 331 331
332 342 344 340 336 335 333 332 334 335 335 335 334 334 332 331 331 331 331 329 327 322 323 322 328 324 321 322 322 320 314 315 326 325 325 326 328 329 329 327 329 328 327
333 334 339 338 336 335 333 332 334 335 334 334 334 333 332 330 331 330 329 327 325 317 322 319 316 319 321 322 322 319 313 312 314 323 324 325 324 323 324 328 328 325 324
338 339 339 339 337 335 335 334 336 335 334 333 332 332 331 331 330 329 327 325 318 312 313 311 315 320 322 321 320 317 313 314 315 317 318 320 320 322 323 326 328 326 321
329 342 340 339 338 338 337 337 336 335 334 332 331 331 330 329 329 329 328 324 314 312 311 308 310 316 315 313 313 314 313 315 316 317 318 319 319 328 329 329 329 324 315
341 342 341 342 341 340 339 338 336 334 332 330 330 330 329 329 330 329 329 328 317 315 314 314 310 312 315 316 316 317 317 318 319 319 317 318 316 321 322 322 318 316 315
338 338 341 342 342 341 339 338 334 333 333 332 331 330 330 331 330 330 331 329 320 317 316 316 316 317 316 315 314 317 318 319 317 317 318 319 318 318 318 317 316 316 315
341 338 338 341 340 339 338 336 334 332 332 332 332 332 329 327 326 328 330 329 325 320 318 318 318 317 314 314 314 315 316 319 321 318 319 319 319 318 317 317 317 317 315
336 338 339 338 338 338 338 336 334 333 333 333 328 324 321 321 322 322 324 325 325 321 320 319 317 314 315 316 315 315 315 319 321 322 320 320 320 320 318 317 317 317 317
337 337 337 338 337 336 337 337 336 334 332 332 328 324 323 323 319 320 320 320 320 319 318 317 316 317 317 317 317 317 316 316 317 320 321 320 320 321 319 317 316 315 316
333 332 334 331 330 331 331 333 330 329 330 330 329 329 329 328 325 320 318 318 318 317 316 316 316 318 319 320 320 320 320 320 320 320 321 319 319 319 318 317 317 316 316
330 330 331 331 331 330 330 329 329 329 329 327 327 327 327 326 325 321 319 317 316 315 316 320 322 322 322 323 322 323 324 324 323 322 321 319 319 319 319 319 319 318 318
332 331 330 330 329 327 327 327 326 325 324 323 322 325 326 326 325 322 322 321 320 319 318 318 318 317 316 317 318 319 319 319 320 320 321 321 321 322 322 322 321 319 318
324 330 329 329 328 326 325 324 323 321 322 322 318 315 320 320 319 317 316 315 312 313 310 310 313 310 309 310 312 311 311 310 308 310 309 311 315 315 318 320 321 321 321
312 312 313 313 311 313 313 312 317 319 316 315 314 311 308 308 309 309 307 306 306 306 306 306 307 307 307 308 308 307 306 304 303 302 301 300 301 305 307 308 314 317 318
309 309 309 308 309 308 308 308 308 308 307 307 310 311 308 307 307 307 306 305 305 305 304 305 305 304 304 304 303 304 303 301 300 299 298 298 298 298 298 300 302 304 309
307 307 307 306 307 307 307 307 307 306 306 306 307 306 305 305 305 306 305 305 305 305 304 304 304 303 303 303 303 302 302 301 301 300 300 299 299 298 298 298 298 299 300
306 306 306 306 305 305 306 306 306 306 306 306 306 306 305 305 305 305 305 305 305 304 304 304 304 303 303 303 303 303 302 301 301 301 300 300 299 299 298 298 298 297 297
307 307 307 306 306 306 306 306 306 306 306 306 306 306 306 306 305 305 306 305 305 304 304 304 304 303 303 303 302 302 302 301 301 301 300 300 299 299 299 298 297 297 297
Wind_Speed
24 21 20 19 20 19 18 17 15 13 11 10 10 8 8 7 4 5 7 6 4 4 5 4 4 3 5 7 9 9 11 6 2 1 5 6 7 3 9 10 9 8 10
24 22 22 23 21 18 15 15 13 12 11 11 11 8 8 3 4 5 5 4 8 6 4 4 5 5 7 8 8 8 10 10 5 3 5 9 7 11 4 10 3 2 6
25 23 22 24 21 17 14 14 11 11 10 9 9 8 8 4 4 4 5 4 5 7 5 4 3 3 6 8 7 5 7 8 7 4 4 8 5 10 9 7 4 2 5
31 29 30 28 23 17 13 12 11 11 10 10 8 7 6 4 5 6 4 3 3 4 4 3 3 3 4 5 6 7 7 6 6 5 3 5 6 9 8 11 10 9 9
32 34 35 30 25 21 17 13 11 9 9 8 6 7 5 4 6 9 5 1 2 2 2 3 5 5 3 1 3 6 6 5 5 5 3 3 3 5 9 10 9 8 2
37 40 37 32 28 24 20 17 13 12 10 9 8 7 6 4 4 5 5 4 3 1 2 1 3 3 1 1 3 6 6 6 8 4 2 2 3 3 5 8 10 7 5
40 40 37 35 34 29 24 20 18 16 14 11 10 8 7 7 7 6 4 4 6 4 2 3 5 3 2 3 4 7 4 2 4 6 6 4 4 5 8 9 8 7 6
39 39 39 37 36 31 25 20 17 15 13 11 10 9 8 7 7 7 6 5 6 5 5 8 9 9 4 3 4 8 3 4 4 5 7 9 8 8 7 7 8 9 7
42 17 42 42 37 29 24 20 16 13 12 13 12 10 9 7 8 8 8 7 7 5 3 7 4 10 6 3 6 9 10 7 5 6 5 6 9 9 9 7 4 5 3
51 29 27 37 35 30 25 21 17 13 13 13 12 12 11 10 8 8 8 8 8 6 5 4 4 5 7 5 8 10 12 10 9 11 10 12 13 14 10 10 7 2 2
47 40 34 31 25 21 20 16 15 13 12 11 11 7 9 11 9 9 9 10 8 5 5 5 3 1 3 5 10 12 11 10 9 11 12 9 11 12 13 12 12 7 4
26 18 32 22 19 18 16 15 13 13 13 11 10 11 12 11 13 13 12 9 8 8 5 4 4 4 5 9 11 10 9 9 11 11 9 9 13 11 3 10 10 8 8
21 17 17 17 18 16 16 13 12 11 11 10 11 13 12 12 14 17 17 15 12 12 8 5 4 5 7 11 11 11 11 12 11 12 10 7 5 2 3 4 8 10 9
16 20 21 20 17 14 13 11 10 12 12 14 14 14 13 16 15 17 20 20 18 16 13 10 9 10 11 13 14 13 14 17 18 15 13 11 8 5 10 10 10 11 10
12 16 16 16 14 13 10 12 15 15 15 17 17 16 12 8 7 9 15 21 22 18 14 15 14 14 15 15 13 15 17 18 17 21 19 18 17 13 11 9 8 10 12
9 10 8 8 9 13 14 13 16 17 16 17 13 10 10 8 6 7 10 13 15 15 15 17 18 17 17 18 18 18 17 17 17 19 22 23 22 20 17 12 11 12 13
4 7 9 10 9 10 15 17 19 12 13 20 15 11 11 13 9 9 11 11 12 13 15 16 18 17 20 20 19 19 20 21 19 17 19 17 18 20 19 15 13 13 12
3 5 11 10 8 6 0 4 2 6 9 8 7 6 8 8 7 13 12 14 14 13 13 14 15 17 17 16 18 19 20 21 19 18 20 18 18 20 20 18 17 16 16
14 14 15 18 16 14 12 12 14 14 13 12 8 8 10 11 9 7 2 6 9 8 7 5 4 7 9 9 10 12 14 13 15 13 13 14 14 14 18 19 19 20 21
10 9 8 9 9 11 12 13 13 14 15 14 14 13 11 7 11 13 13 13 10 8 6 6 7 8 10 11 10 11 11 11 9 8 7 7 7 7 7 10 12 18 22
9 6 9 11 11 10 8 8 9 12 11 8 10 9 7 9 10 11 9 8 9 8 8 8 8 10 12 11 11 12 11 10 11 12 14 12 9 10 11 13 15 18 21
23 25 23 23 24 23 22 19 11 9 10 8 8 11 12 12 10 5 3 7 9 8 8 9 9 9 10 9 10 11 11 11 14 15 17 17 18 13 13 14 10 13 21
23 22 22 22 21 19 19 17 16 15 14 11 7 6 7 6 1 3 3 3 3 3 4 4 4 5 7 10 11 9 8 10 11 13 15 16 15 18 17 17 17 16 15
22 22 20 18 18 17 14 13 13 12 11 10 7 9 5 5 8 0 2 3 5 1 2 5 6 7 8 9 9 7 8 8 9 10 13 10 14 16 17 18 19 18 17
18 18 18 17 14 12 13 9 9 8 8 6 8 2 3 6 7 9 5 9 7 5 6 9 12 13 15 15 15 14 12 10 11 11 12 13 14 15 16 18 20 22 22
12 12 12 12 9 8 10 8 9 7 8 8 9 9 3 3 8 9 7 9 7 12 13 14 14 17 17 20 22 21 18 15 15 17 17 16 16 17 18 18 20 21 24
Wind_Direction
197 198 197 189 179 177 175 174 173 174 179 173 163 159 156 144 100 107 109 85 64 57 83 72 38 38 48 50 52 61 64 76 136 309 299 5 11 292 239 249 257 276 281
203 204 198 183 180 180 179 177 178 172 168 168 167 169 166 147 108 119 112 100 83 118 82 83 77 57 43 34 28 34 37 41 49 4 319 352 330 355 294 221 251 320 286
204 206 199 183 183 182 179 174 178 174 172 174 174 177 171 170 140 131 106 111 102 86 84 73 61 48 38 18 15 25 12 17 27 26 352 23 32 16 43 101 82 54 49
201 202 194 188 186 184 180 182 181 181 183 184 186 186 189 192 193 173 170 166 115 75 95 53 56 7 357 27 37 32 20 15 19 23 29 35 22 7 24 18 358 24 40
203 201 193 186 180 181 180 181 184 184 183 184 182 184 198 223 243 200 192 224 188 195 167 23 41 24 276 137 1 355 349 352 7 28 62 44 32 21 16 2 352 350 48
195 192 184 179 180 181 179 177 182 187 194 199 203 203 210 208 175 209 270 290 282 185 174 219 43 328 97 203 308 332 317 322 317 327 5 14 20 12 7 3 350 356 329
188 185 179 180 179 178 176 180 183 187 193 206 202 203 210 206 213 238 257 290 304 285 243 276 278 305 222 239 300 318 305 265 305 295 293 285 295 324 324 328 331 321 291
183 181 185 182 181 176 175 180 186 192 198 204 212 211 224 225 218 227 239 270 296 285 304 290 267 253 238 263 330 0 350 319 329 322 291 291 282 305 312 315 314 313 313
348 259 186 184 176 173 169 174 184 197 204 209 221 215 219 231 231 229 243 264 281 278 333 6 246 248 239 264 321 342 338 300 286 291 304 292 281 286 294 304 324 343 319
309 291 233 176 177 173 171 176 181 200 214 219 221 227 226 229 230 241 249 255 265 262 253 302 325 277 230 263 313 326 327 331 314 295 287 275 282 288 280 268 268 290 306
332 220 183 173 171 174 173 178 174 195 210 221 225 217 220 229 246 241 251 270 269 272 281 283 267 203 236 287 302 310 317 310 320 317 313 319 326 291 267 243 232 247 242
30 68 131 154 169 171 167 177 178 198 211 221 233 238 242 239 242 243 250 255 269 274 284 282 244 233 270 299 306 312 308 304 303 313 314 341 358 4 246 198 214 239 271
131 124 135 163 169 170 168 175 189 208 223 225 235 249 256 256 256 253 249 252 246 253 266 271 264 269 293 303 304 307 309 298 297 283 287 304 331 360 107 181 234 245 250
146 158 168 158 157 172 179 188 202 214 222 237 247 259 278 275 266 251 247 234 236 243 250 258 273 274 286 300 304 303 304 291 285 280 274 282 297 259 240 250 249 237 247
172 167 179 176 175 181 195 205 209 218 230 242 251 255 232 243 260 248 238 229 235 244 260 268 272 274 286 295 299 300 309 321 270 264 265 269 274 276 264 261 269 262 248
208 184 179 186 182 201 208 228 235 245 253 251 252 241 246 274 262 249 240 236 243 243 252 263 270 283 289 298 304 303 299 309 307 270 265 263 264 270 266 267 272 266 261
269 159 159 206 218 227 223 231 245 258 264 251 258 273 296 293 273 247 241 246 241 241 246 260 271 283 294 300 302 302 295 293 293 287 264 263 258 257 251 257 268 265 268
329 108 125 105 114 94 112 239 128 72 58 55 56 2 336 334 313 254 250 247 247 253 261 274 290 304 307 315 318 316 314 306 302 292 266 253 244 238 243 253 258 260 264
78 91 97 95 82 78 78 83 87 85 86 81 65 40 26 17 13 15 355 283 298 306 316 322 360 347 351 360 359 356 351 317 304 286 265 264 267 269 268 266 266 267 268
66 63 71 73 81 81 90 86 89 95 97 86 64 55 52 45 48 44 41 40 42 50 30 12 15 2 3 358 353 357 360 356 0 359 1 352 343 330 323 323 313 301 287
72 81 82 80 71 78 68 84 88 88 99 88 60 51 66 70 65 56 36 37 28 13 21 9 19 21 21 30 12 14 12 12 360 2 354 343 341 338 332 314 317 324 302
71 77 79 81 78 74 75 69 76 78 68 70 74 65 66 68 61 56 58 54 49 48 39 40 39 39 34 27 10 21 28 20 17 14 8 359 360 355 339 331 315 303 307
75 75 75 73 74 74 71 66 67 71 67 60 63 68 61 55 27 159 80 82 53 37 47 36 26 13 354 351 351 4 12 14 9 14 10 4 12 4 358 345 331 320 320
80 79 79 77 76 72 70 70 69 75 58 52 83 125 115 34 7 58 230 251 211 283 299 309 317 313 315 319 326 331 330 333 348 348 348 337 349 2 359 355 349 337 320
79 76 76 73 70 70 63 73 96 88 52 25 11 302 329 11 20 6 308 324 239 265 303 278 273 282 285 291 294 289 288 285 307 312 316 329 328 327 331 334 337 337 332
85 78 70 59 67 61 47 40 35 44 35 18 5 353 329 317 335 323 319 334 331 311 303 303 298 295 293 279 278 276 277 277 288 291 289 292 302 304 304 308 316 319 322